Regional Weather Roundup
Issued by NWS

Home | Current Version | Previous Version | Text Only | Print | Product List | Glossary Off
Versions: 1 2 3 4 5 6 7 8 9 10 11 12 13 14 15 16 17 18 19 20 21 22 23 24 25 26 27

000
ASUS45 KBOU 240506
RWRCO

WEATHER ROUNDUP FOR COLORADO
NATIONAL WEATHER SERVICE DENVER/BOULDER CO
1100 PM MDT WED APR 23 2014

NOTE: "FAIR" INDICATES FEW OR NO CLOUDS BELOW 12000 FEET WITH NO
SIGNIFICANT WEATHER AND/OR OBSTRUCTIONS TO VISIBILITY.

COZ001>005-013-030-031-240600-
...NORTHWEST COLORADO...

CITY           SKY/WX    TMP DP  RH WIND       PRES   REMARKS
CRAIG          CLEAR     32  15  49 SW7       30.06R WCI  26
HAYDEN         CLEAR     30  16  55 W7        30.07R WCI  23
MEEKER         CLEAR     33  17  51 CALM      30.06R
MOUNT WERNER   MOCLDY    23  10  58 W20G25    30.04S WCI   8
STEAMBOAT SPGS CLEAR     32  12  43 W3        30.03R
WALDEN         MOCLDY    30  10  43 W12       30.00S WCI  21
$$

COZ006>008-011-240600-
...WEST CENTRAL VALLEYS...

CITY           SKY/WX    TMP DP  RH WIND       PRES   REMARKS
GRAND JUNCTION CLEAR     44  11  26 W15       30.01R
MONTROSE       PTCLDY    40  13  33 E8        30.04R
EAGLE          PTCLDY    41  12  30 W6        30.05R
RIFLE          CLEAR     43  13  29 NW7       30.03R
DELTA          NOT AVBL
NUCLA          NOT AVBL
$$

COZ017>023-064>068-240600-
...SOUTHWEST COLORADO...

CITY           SKY/WX    TMP DP  RH WIND       PRES   REMARKS
DURANGO        CLEAR     42   9  25 W12       29.98R
CORTEZ         CLEAR     38  13  35 E5        30.04R
PAGOSA SPRINGS CLEAR     31  14  48 CALM      29.97S
TELLURIDE      NOT AVBL
WOLF CREEK PAS CLEAR     21  10  63 SW14      30.04S WCI   8
$$

COZ009-010-012-014-032>034-037-058>063-240600-
...CENTRAL COLORADO...

CITY           SKY/WX    TMP DP  RH WIND       PRES   REMARKS
ASPEN          CLOUDY    38  14  37 NW10      30.02R
BUENA VISTA    MOCLDY    38  19  47 NW12G20   29.95R
COPPER MTN     LGT SNOW  21  16  79 MISG      30.03R VSB 3/4
BERTHOUD PASS  CLOUDY    10   1  67 NW47G55   29.94F WCI -16
COTTONWOOD PAS LGT SNOW  32  23  69 N9G21     29.97R WCI  24
GUNNISON       PTCLDY    37   7  28 W12       30.03R
KREMMLING      PTCLDY    34   9  35 CALM      30.04R
LEADVILLE      CLOUDY    25  19  78 NW13      30.01R WCI  14
MONARCH PASS   PTCLDY    21  14  73 W36G46    30.08S WCI   2
SALIDA         MOCLDY    43  15  32 W15       30.00R
SUNLIGHT       PTCLDY    25  14  63 SW3       30.09R
WILKERSON PASS CLOUDY    27  14  59 NW9       30.00R WCI  17
$$

COZ069>075-240600-
...SAN LUIS VALLEY/SANGRE DE CRISTO MOUNTAINS...

CITY           SKY/WX    TMP DP  RH WIND       PRES   REMARKS
ALAMOSA        PTCLDY    41  21  44 NW16G25   29.91F
LA VETA PASS   NOT AVBL
SAGUACHE       PTCLDY    39  14  35 NW20G28   29.95S
$$

COZ035-036-038>040-240600-
...NORTHERN COLORADO FRONT RANGE...

CITY           SKY/WX    TMP DP  RH WIND       PRES   REMARKS
DENVER INTL AP LGT RAIN  40  37  89 NE17      29.91R
DMNS CITY PARK   N/A     42  38  87 S5        29.92R
AURORA         MOCLDY    39  37  93 NE14G24   29.92R
FRONT RANGE AP NOT AVBL
ERIE MUNI ARPT CLOUDY    45  40  82 SE7       29.90R
BOULDER MUN AP CLOUDY    45  41  87 CALM      29.90R
CENTENNIAL     CLOUDY    40  34  79 SE7       29.93R
BROOMFIELD     NOT AVBL
FORT COLLINS   CLOUDY    46  32  57 W5        29.91R
LONGMONT       NOT AVBL
$$

COZ041-046-047-076>085-087-088-240600-
...PIKES PEAK/PALMER DIVIDE AND SOUTHERN FOOTHILLS...

CITY           SKY/WX    TMP DP  RH WIND       PRES   REMARKS
COLO. SPRINGS  CLOUDY    41  32  70 N22G29    29.89R
A. F. ACADEMY  CLOUDY    37  34  91 N15       29.91R
ELLICOTT       NOT AVBL
FALCON         CLOUDY    35  33  94 N16G23    29.91R WCI  25
FORT CARSON    CLOUDY    42  34  72 N21       29.87R
LIMON          FLURRIES  34  33  96 N29G40    29.89R WCI  20
MONUMENT HILL  LGT SNOW  32  32 100 NE10      29.93R WCI  24
TRINIDAD       CLOUDY    48  35  60 NE26G39   29.85R
$$

COZ042>045-048>051-090-091-240600-
...NORTHEAST COLORADO...

CITY           SKY/WX    TMP DP  RH WIND       PRES   REMARKS
GREELEY ARPT   CLOUDY    50  10  20 NW28G35   29.88S
AKRON          CLOUDY    43  30  60 NW20G41   29.90R
BURLINGTON     CLOUDY    49  28  44 N24G40    29.82R
WRAY           CLOUDY    53  26  35 NW35G45   29.84R
STERLING       NOT AVBL
HOLYOKE        NOT AVBL
FORT MORGAN    NOT AVBL
$$

COZ086-089-092>099-240600-
...SOUTHEAST COLORADO...

CITY           SKY/WX    TMP DP  RH WIND       PRES   REMARKS
PUEBLO         CLOUDY    46  38  73 N33G41    29.83R
LA JUNTA       CLOUDY    50  33  52 N32G49    29.82R HAZE
LAMAR          CLOUDY    51  33  50 N31G53    29.74R HAZE
SPRINGFIELD      N/A     53  31  42 N40G48    29.77R
$$



USA.gov is the U.S. government's official web portal to all federal, state and local government web resources and services.